This demonstration page uses our WeatherBlox Daily Observations layout. Learn more.

Left ArrowRight Arrow

Hourly Observations for July 5, 2022

Temp ( °F °C ) Dew Point ( °F °C ) Humidity (%) Winds ( mph kmh ) Pressure ( in mb ) Visibility ( mi km ) Precip ( " mm )
12:53 am 00:53 Clear 83 28.3 75 23.9 77 77 SW 7 11 30.02 1017 10 16 0.00 0.00
1:53 am 01:53 Clear 81 27.2 75 23.9 82 82 S 5 7 30.03 1017 10 16 0.00 0.00
2:53 am 02:53 Clear 80 26.7 75 23.9 85 85 S 3 6 30.03 1017 9 14 0.00 0.00
3:53 am 03:53 Clear 79 26.1 74 23.3 85 85 Calm 30.03 1017 9 14 0.00 0.00
4:53 am 04:53 Clear 78 25.6 75 23.9 90 90 SSE 5 7 30.04 1017 7 11 0.00 0.00
5:53 am 05:53 Clear 77 25 74 23.3 90 90 SSE 3 6 30.04 1017 6 10 0.00 0.00
6:53 am 06:53 Sunny 78 25.6 75 23.9 90 90 Calm 30.05 1018 4 6 0.00 0.00
7:53 am 07:53 Sunny 81 27.2 76 24.4 85 85 W 3 6 30.06 1018 6 10 0.00 0.00
8:53 am 08:53 Mostly Sunny 85 29.4 77 25 77 77 W 10 17 30.05 1018 9 14 0.00 0.00
9:53 am 09:53 Partly Cloudy 88 31.1 75 23.9 66 66 W 10 17 30.05 1018 10 16 0.00 0.00
10:53 am 10:53 Mostly Cloudy 89 31.7 75 23.9 63 63 VRB 6 9 30.05 1018 10 16 0.00 0.00
11:21 am 11:21 Mostly Cloudy 91 32.8 74 23.3 57 57 W 5 7 30.03 1017 10 16 0.00 0.00
11:53 am 11:53 Mostly Sunny 92 33.3 74 23.3 56 56 VRB 3 6 30.04 1017 10 16 0.00 0.00
12:53 pm 12:53 Mostly Sunny 94 34.4 73 22.8 51 51 NW 6 9 30.02 1017 10 16 0.00 0.00
1:53 pm 13:53 Mostly Sunny 96 35.6 74 23.3 49 49 SW 5 7 29.99 1016 10 16 0.00 0.00
2:53 pm 14:53 Sunny 96 35.6 72 22.2 46 46 VRB 5 7 29.98 1015 10 16 0.00 0.00
3:53 pm 15:53 Sunny 97 36.1 71 21.7 43 43 VRB 3 6 29.96 1015 10 16 0.00 0.00
4:53 pm 16:53 Sunny 96 35.6 72 22.2 46 46 SSW 3 6 29.96 1015 10 16 0.00 0.00
5:53 pm 17:53 Sunny 94 34.4 74 23.3 52 52 SSE 12 19 29.95 1014 10 16 0.00 0.00
6:53 pm 18:53 Mostly Sunny 91 32.8 74 23.3 57 57 SSE 13 20 29.95 1014 10 16 0.00 0.00
7:53 pm 19:53 Mostly Cloudy 89 31.7 75 23.9 63 63 SSE 8 13 29.94 1014 10 16 0.00 0.00
8:53 pm 20:53 Clear 86 30 76 24.4 72 72 S 6 9 29.92 1013 10 16 0.00 0.00
9:53 pm 21:53 Clear 84 28.9 76 24.4 77 77 SSE 6 9 29.94 1014 10 16 0.00 0.00
10:53 pm 22:53 Clear 83 28.3 77 25 82 82 SSE 7 11 29.96 1015 10 16 0.00 0.00
11:53 pm 23:53 Clear 83 28.3 77 25 82 82 SSE 8 13 29.97 1015 10 16 0.00 0.00

Powered by AerisWeather